Metropolis, IL

2:56 AM CDT on June 25, 2017 (GMT -0500)
Metropolis

Weather History for KM30 - October, 2012

Change the Weather History Date:

Sunday, October 7, 2012

  Actual Average (KPAH) Record (KPAH)
Temperature  
Mean Temperature 50 °F -  
Max Temperature 56 °F 69 °F 92 °F (2007)
Min Temperature 43 °F 47 °F 29 °F (1952)
Degree Days  
Heating Degree Days 16    
Moisture  
Dew Point 36 °F    
Average Humidity 65    
Maximum Humidity 85    
Minimum Humidity 40    
Precipitation  
Precipitation 0.00 in - - ()
Sea Level Pressure  
Sea Level Pressure 30.21 in    
Wind  
Wind Speed 4 mph (NNW)    
Max Wind Speed 9 mph    
Max Gust Speed -    
Visibility 10 miles    
Events      
Averages and records for this station are not official NWS values.
T = Trace of Precipitation, MM = Missing Value Source: NWS Daily Summary

Daily Weather History Graph

Daily Weather History Graph

Search for Another Location

Airport or City:

Trip Planner

Search our weather history database for the weather conditions in past years. The results will help you decide how hot, cold, wet, or windy it might be!

Date:

Astronomy

Oct. 07, 2012 Rise Set
Actual Time 6:56 AM CDT 6:28 PM CDT
Civil Twilight 6:30 AM CDT 6:54 PM CDT
Nautical Twilight 5:59 AM CDT 7:24 PM CDT
Astronomical Twilight 5:29 AM CDT 7:54 PM CDT
Moon 11:45 PM CDT (10/7) 1:27 PM CDT (10/7)
Length of Visible Light 12h 24m
Length of Day
11h 32m
Waning Gibbous, 56% of the Moon is Illuminated
Oct 7
Waning Gibbous
Oct 8
Last Quarter
Oct 15
New
Oct 21
First Quarter
Oct 29
Full

Hourly Weather History & Observations

Time (CDT) Temp. Windchill Dew Point Humidity Pressure Visibility Wind Dir Wind Speed Gust Speed Precip Events Conditions
12:15 AM 46.4 °F 45.2 °F 36.5 °F 68% 30.20 in 10.0 mi NNW 3.5 mph - N/A   Overcast
12:35 AM 46.4 °F - 36.1 °F 67% 30.20 in 10.0 mi Calm Calm - N/A   Overcast
12:55 AM 45.9 °F 44.6 °F 36.9 °F 71% 30.20 in 10.0 mi NW 3.5 mph - N/A   Overcast
1:15 AM 45.9 °F 44.6 °F 37.4 °F 72% 30.21 in 10.0 mi NW 3.5 mph - N/A   Overcast
1:35 AM 45.5 °F - 37.9 °F 75% 30.21 in 10.0 mi Calm Calm - N/A   Overcast
1:55 AM 45.3 °F - 38.5 °F 77% 30.22 in 10.0 mi Calm Calm - N/A   Overcast
2:15 AM 44.8 °F 42.4 °F 38.7 °F 79% 30.21 in 10.0 mi NW 4.6 mph - N/A   Overcast
2:35 AM 44.6 °F 43.1 °F 38.5 °F 79% 30.21 in 10.0 mi NW 3.5 mph - N/A   Overcast
2:55 AM 44.6 °F 42.2 °F 38.5 °F 79% 30.20 in 10.0 mi NNW 4.6 mph - N/A   Overcast
3:15 AM 44.2 °F 41.8 °F 38.5 °F 80% 30.20 in 10.0 mi NW 4.6 mph - N/A   Overcast
3:35 AM 44.1 °F 42.5 °F 38.3 °F 80% 30.20 in 10.0 mi NNW 3.5 mph - N/A   Overcast
3:55 AM 43.2 °F 41.5 °F 37.6 °F 81% 30.19 in 10.0 mi NNW 3.5 mph - N/A   Mostly Cloudy
4:15 AM 43.7 °F 42.1 °F 38.3 °F 81% 30.21 in 10.0 mi WNW 3.5 mph - N/A   Mostly Cloudy
4:35 AM 43.7 °F 41.1 °F 38.3 °F 81% 30.21 in 10.0 mi NW 4.6 mph - N/A   Overcast
4:55 AM 43.9 °F 40.5 °F 37.6 °F 78% 30.21 in 10.0 mi NW 5.8 mph - N/A   Overcast
5:15 AM 43.9 °F 39.9 °F 37.4 °F 78% 30.21 in 10.0 mi NNW 6.9 mph - N/A   Overcast
5:35 AM 43.7 °F 40.3 °F 36.9 °F 77% 30.21 in 10.0 mi NW 5.8 mph - N/A   Overcast
5:55 AM 43.7 °F 40.3 °F 36.3 °F 75% 30.22 in 10.0 mi NNW 5.8 mph - N/A   Overcast
6:15 AM 43.7 °F 41.1 °F 35.8 °F 74% 30.23 in 10.0 mi NW 4.6 mph - N/A   Overcast
6:35 AM 43.3 °F 41.7 °F 35.6 °F 74% 30.23 in 10.0 mi NNW 3.5 mph - N/A   Overcast
6:55 AM 43.2 °F 41.5 °F 35.4 °F 74% 30.24 in 10.0 mi NW 3.5 mph - N/A   Overcast
7:15 AM 43.2 °F - 35.4 °F 74% 30.24 in 10.0 mi Calm Calm - N/A   Overcast
7:35 AM 43.2 °F 41.5 °F 35.6 °F 75% 30.24 in 10.0 mi NW 3.5 mph - N/A   Overcast
7:55 AM 43.5 °F 41.9 °F 36.0 °F 75% 30.24 in 10.0 mi NNW 3.5 mph - N/A   Overcast
8:35 AM 44.8 °F 42.4 °F 36.1 °F 72% 30.25 in 10.0 mi WNW 4.6 mph - N/A   Mostly Cloudy
8:55 AM 45.7 °F 43.4 °F 36.7 °F 71% 30.25 in 10.0 mi NW 4.6 mph - N/A   Scattered Clouds
9:15 AM 46.6 °F - 36.0 °F 67% 30.25 in 10.0 mi North 5.8 mph - N/A   Clear
9:35 AM 47.1 °F - 34.7 °F 62% 30.26 in 10.0 mi NW 6.9 mph - N/A   Clear
9:55 AM 48.2 °F - 33.1 °F 56% 30.25 in 10.0 mi NNE 4.6 mph - N/A   Scattered Clouds
10:15 AM 49.3 °F - 32.5 °F 53% 30.25 in 10.0 mi North 6.9 mph - N/A   Clear
10:35 AM 50.2 °F - 32.2 °F 50% 30.26 in 10.0 mi North 9.2 mph - N/A   Clear
10:55 AM 50.7 °F - 31.8 °F 48% 30.25 in 10.0 mi North 6.9 mph - N/A   Clear
11:15 AM 51.3 °F - 32.2 °F 48% 30.25 in 10.0 mi NNW 6.9 mph - N/A   Scattered Clouds
11:55 AM 52.5 °F - 32.4 °F 46% 30.26 in 10.0 mi WNW 9.2 mph - N/A   Clear
12:15 PM 52.2 °F - 31.6 °F 46% 30.25 in 10.0 mi NNW 6.9 mph - N/A   Clear
12:35 PM 53.8 °F - 32.4 °F 44% 30.24 in 10.0 mi NW 9.2 mph - N/A   Clear
12:55 PM 53.8 °F - 31.8 °F 43% 30.24 in 10.0 mi NNE 3.5 mph - N/A   Clear
1:15 PM 54.5 °F - 32.9 °F 44% 30.22 in 10.0 mi NNW 9.2 mph - N/A   Clear
1:35 PM 54.9 °F - 32.0 °F 42% 30.22 in 10.0 mi NNW 5.8 mph - N/A   Clear
2:35 PM 55.9 °F - 32.9 °F 42% 30.19 in 10.0 mi North 8.1 mph - N/A   Clear
2:55 PM 56.1 °F - 33.3 °F 42% 30.19 in 10.0 mi NNW 9.2 mph - N/A   Clear
3:15 PM 55.4 °F - 32.4 °F 42% 30.18 in 10.0 mi NW 8.1 mph - N/A   Clear
3:35 PM 54.7 °F - 32.2 °F 42% 30.18 in 10.0 mi NNW 8.1 mph - N/A   Clear
3:55 PM 56.1 °F - 32.2 °F 40% 30.18 in 10.0 mi North 6.9 mph - N/A   Clear
4:15 PM 55.6 °F - 32.4 °F 41% 30.18 in 10.0 mi North 4.6 mph - N/A   Clear
4:35 PM 55.6 °F - 32.2 °F 41% 30.18 in 10.0 mi NW 6.9 mph - N/A   Clear
4:55 PM 54.7 °F - 32.0 °F 42% 30.18 in 10.0 mi North 4.6 mph - N/A   Clear
5:15 PM 54.5 °F - 32.7 °F 44% 30.18 in 10.0 mi North 4.6 mph - N/A   Clear
5:35 PM 53.6 °F - 33.1 °F 46% 30.18 in 10.0 mi NNW 4.6 mph - N/A   Clear
5:55 PM 52.0 °F - 35.2 °F 53% 30.19 in 10.0 mi Calm Calm - N/A   Clear
6:15 PM 50.7 °F - 38.3 °F 62% 30.19 in 4.0 mi Calm Calm - N/A   Clear
6:35 PM 50.5 °F - 36.5 °F 59% 30.18 in 10.0 mi Calm Calm - N/A   Clear
6:55 PM 49.1 °F - 36.3 °F 61% 30.18 in 10.0 mi Calm Calm - N/A   Clear
7:15 PM 49.3 °F - 36.1 °F 61% 30.19 in 10.0 mi North 3.5 mph - N/A   Clear
7:35 PM 48.6 °F - 37.0 °F 64% 30.19 in 10.0 mi NNW 3.5 mph - N/A   Clear
7:55 PM 47.8 °F - 37.0 °F 66% 30.19 in 10.0 mi Calm Calm - N/A   Clear
8:15 PM 47.3 °F - 37.6 °F 69% 30.19 in 10.0 mi Calm Calm - N/A   Clear
8:35 PM 46.6 °F - 38.3 °F 73% 30.20 in 10.0 mi Calm Calm - N/A   Clear
8:55 PM 46.0 °F - 38.3 °F 74% 30.20 in 10.0 mi Calm Calm - N/A   Clear
9:15 PM 44.8 °F - 39.0 °F 80% 30.21 in 10.0 mi Calm Calm - N/A   Clear
9:35 PM 43.2 °F - 39.0 °F 85% 30.21 in 10.0 mi Calm Calm - N/A   Clear
9:55 PM 43.7 °F - 39.2 °F 84% 30.21 in 10.0 mi Calm Calm - N/A   Clear
10:15 PM 45.0 °F - 38.1 °F 77% 30.20 in 10.0 mi Calm Calm - N/A   Clear
10:35 PM 45.1 °F 43.7 °F 37.8 °F 75% 30.19 in 10.0 mi North 3.5 mph - N/A   Clear
10:55 PM 45.1 °F - 37.9 °F 76% 30.20 in 10.0 mi Calm Calm - N/A   Clear
11:15 PM 45.3 °F - 37.9 °F 75% 30.21 in 10.0 mi Calm Calm - N/A   Clear
11:35 PM 44.8 °F - 37.8 °F 76% 30.21 in 10.0 mi Calm Calm - N/A   Clear
11:55 PM 44.1 °F - 38.7 °F 81% 30.20 in 10.0 mi Calm Calm - N/A   Clear